Regional Weather Roundup
Issued by NWS Cleveland, OH

Home | Current Version | Previous Version | Graphics & Text | Print | Product List | Glossary On
Versions: 1 2 3 4 5 6 7 8 9 10 11 12 13 14 15 16 17 18 19 20 21 22 23 24 25 26 27 28 29 30 31 32 33 34 35 36 37 38 39 40 41 42 43 44 45 46 47 48 49 50
000
ASUS41 KCLE 190902
RWRCLE
OHIO REGIONAL WEATHER ROUNDUP
NATIONAL WEATHER SERVICE CLEVELAND, OH
500 AM EDT SAT AUG 19 2017

NOTE: "FAIR" INDICATES FEW OR NO CLOUDS BELOW 12,000 FEET WITH NO
SIGNIFICANT WEATHER AND/OR OBSTRUCTIONS TO VISIBILITY.

OHZ001>008-015>018-024>027-034-035-043-044-191000-
   NORTHWEST OHIO

CITY           SKY/WX    TMP DP  RH WIND       PRES   REMARKS
DEFIANCE       LGT RAIN  64  61  90 SW5       29.89R
FINDLAY        PTCLDY    64  60  87 S5        29.87F
TOLEDO EXPRESS CLEAR     62  62 100 S3        29.87F
TOLEDO EXEC    PTCLDY    64  62  93 S6        29.88F
LIMA           MOCLDY    65  63  93 S5        29.88F
$$

OHZ009>014-019>023-028>033-038-089-191000-
   NORTHEAST OHIO

CITY           SKY/WX    TMP DP  RH WIND       PRES   REMARKS
CLE-HOPKINS    PTCLDY    67  63  87 S6        29.90F
CLE-LAKEFRONT  CLEAR     68  62  81 S5        29.87F
CUY CO. ARPT   NOT AVBL
LORAIN-ELYRIA  CLOUDY    63  58  83 S3        29.89F
ASHTABULA      PTCLDY    64  63  96 SW3       29.89S
AKRON-CANTON   CLEAR     64  60  87 SW5       29.91F
WOOSTER        CLEAR     59  58  96 CALM      29.92S FOG
MANSFIELD      MOCLDY    63  62  97 SW3       29.92F
YOUNGSTOWN     CLEAR     63  61  93 W6        29.90S
$$

OHZ042-051>053-060>062-070>072-077>081-191000-
  SOUTHWEST OHIO

CITY           SKY/WX    TMP DP  RH WIND       PRES   REMARKS
CINC-COVINGTON CLOUDY    68  66  93 S6        29.94S
CINC-LUNKEN    MOCLDY    67  66  97 CALM      29.93F
HAMILTON       CLOUDY    66  66 100 CALM      29.93S
DAYTON         CLOUDY    69  62  78 S6        29.92F
WRIGHT-PAT AFB CLOUDY    68  65  91 SE5       29.91F
DAYTON GENERAL PTCLDY    67  64  90 S5        29.92F
WILMINGTON     PTCLDY    65  65 100 S5        29.93F
$$

OHZ036-037-039>041-045>050-054>059-063>069-073>076-082>088-191000-
  CENTRAL AND SOUTHEAST OHIO

CITY           SKY/WX    TMP DP  RH WIND       PRES   REMARKS
COLUMBUS       CLOUDY    68  66  93 S5        29.91F
OSU AIRPORT    CLOUDY    68  66  93 CALM      29.91F
BOLTON FIELD   CLOUDY    64  63  99 SW5       29.92F
RICKENBACK AFB NOT AVBL
NEWARK         PTCLDY    63  61  93 CALM      29.92S
MARION         CLOUDY    62  60  93 SE6       29.91F
LANCASTER      PTCLDY    64  63  96 CALM      29.93S
ZANESVILLE     PTCLDY    64  62  93 SW3       29.92F
NEW PHILLY     NOT AVBL
$$




USA.gov is the U.S. government's official web portal to all federal, state and local government web resources and services.